Location: ???????
(55.4362°N, 38.1183°E)
Time: 18:26:05
(UTC+00:00)

YAOGAN 11 - Pass Details

Date: 17 June 2021
Orbit: 613 x 668 km, 98.3° (Epoch: 30 July)

Event Time Altitude Azimuth Distance (km) Brightness Sun altitude
Exits shadow 22:10:01 11° 161° (SSE) 1,954 6.1 -10.7°
Maximum altitude 22:14:16 87° 77° (ENE) 657 4.2 -10.6°
Drops below altitude 10° 22:18:49 10° 345° (NNW) 2,079 7.9 -10.4°
Sets 22:21:04 0° 345° (NNW) 3,003 8.8 -10.4°
